Retour au catalogue

COSMOS 2251 DEB

ActifLEO
NORAD 34344·DEBRIS·🇷🇺 Russia

Lancé Jun 16, 1993 depuis Plesetsk Cosmodrome

Loading…

Prochains Passages (prochaines 24 heures)

TLE

FraisSource: Space-Track

Époque: Sep 14, 2026, 09:57 UTC

1 34344U 93036PS  26257.41476155  .00001763  00000-0  78231-3 0  9995
2 34344  73.9785 337.4893 0149180  99.3691  24.6701 14.17958673900028

Suivez COSMOS 2251 DEB en temps réel avec AllMySat

Download on the App Store